Weather History for KOLY - August, 2014

Change the Weather History Date:

Friday, August 1, 2014

  Actual Average (KEVV) Record (KEVV)
Temperature  
Mean Temperature 68 °F 78 °F  
Max Temperature 80 °F 88 °F 100 °F (1935)
Min Temperature 57 °F 67 °F 54 °F (1971)
Degree Days  
Heating Degree Days 0 0  
Month to date heating degree days 0  
Since 1 June heating degree days 6  
Since 1 July heating degree days 0  
Cooling Degree Days 4 13  
Month to date cooling degree days 13  
Year to date cooling degree days 849  
Since 1 June cooling degree days 714  
Growing Degree Days 18 (Base 50)    
Moisture  
Dew Point 62 °F    
Average Humidity 80    
Maximum Humidity 100    
Minimum Humidity 54    
Precipitation  
Precipitation 0.00 in 0.10 in 1.99 in (1934)
Month to date precipitation 0.10  
Year to date precipitation 28.04  
Snow  
Snow 0.00 in 0.00 in 0.00 in (2002)
Month to date snowfall 0.0  
Since 1 June snowfall 0.0  
Since 1 July snowfall 0.0  
Snow Depth -    
Sea Level Pressure  
Sea Level Pressure 30.09 in    
Wind  
Wind Speed 0 mph (NNW)    
Max Wind Speed 9 mph    
Max Gust Speed 17 mph    
Visibility 8 miles    
Events Fog , Rain , Thunderstorm    
T = Trace of Precipitation, MM = Missing Value Source: NWS Daily Summary

Daily Weather History Graph

Daily Weather History Graph

Search for Another Location

Airport or City:

Trip Planner

Search our weather history database for the weather conditions in past years. The results will help you decide how hot, cold, wet, or windy it might be!

Date:

Astronomy

Aug. 01, 2014 Rise Set
Actual Time 5:54 AM CDT 8:03 PM CDT
Civil Twilight 5:24 AM CDT 8:32 PM CDT
Nautical Twilight 4:48 AM CDT 9:09 PM CDT
Astronomical Twilight 4:08 AM CDT 9:48 PM CDT
Moon 11:13 AM CDT (8/1) 10:52 PM CDT (8/1)
Length of Visible Light 15h 08m
Length of Day
14h 09m
Waxing Crescent, 28% of the Moon is Illuminated
Aug 1
Waxing Crescent
Aug 3
First Quarter
Aug 10
Full
Aug 17
Last Quarter
Aug 25
New

Hourly Weather History & Observations

Time (CDT) Temp. Heat Index Dew Point Humidity Pressure Visibility Wind Dir Wind Speed Gust Speed Precip Events Conditions
12:15 AM 62.6 °F - 60.8 °F 94% 30.08 in 10.0 mi Calm Calm - N/A   Scattered Clouds
12:35 AM 60.8 °F - 60.8 °F 100% 30.08 in 10.0 mi Calm Calm - N/A   Clear
12:55 AM 60.8 °F - 60.8 °F 100% 30.08 in 5.0 mi Calm Calm - N/A   Scattered Clouds
1:15 AM 60.8 °F - 60.8 °F 100% 30.08 in 5.0 mi Calm Calm - N/A   Scattered Clouds
1:35 AM 60.8 °F - 59.0 °F 94% 30.08 in 7.0 mi Calm Calm - N/A   Clear
1:55 AM 60.8 °F - 59.0 °F 94% 30.07 in 4.0 mi Calm Calm - N/A   Clear
2:15 AM 59.0 °F - 59.0 °F 100% 30.08 in 5.0 mi Calm Calm - N/A   Clear
2:35 AM 59.0 °F - 59.0 °F 100% 30.08 in 5.0 mi Calm Calm - N/A   Scattered Clouds
2:55 AM 59.0 °F - 59.0 °F 100% 30.08 in 4.0 mi Calm Calm - N/A   Scattered Clouds
3:35 AM 60.8 °F - 60.8 °F 100% 30.08 in 5.0 mi Calm Calm - N/A   Overcast
3:55 AM 59.0 °F - 59.0 °F 100% 30.08 in 5.0 mi Calm Calm - N/A   Mostly Cloudy
3:57 AM 60.8 °F - 59.0 °F 94% 30.08 in 5.0 mi Calm Calm - N/A   Mostly Cloudy
4:15 AM 59.0 °F - 59.0 °F 100% 30.08 in 4.0 mi Calm Calm - N/A   Scattered Clouds
4:35 AM 59.0 °F - 57.2 °F 94% 30.08 in 3.0 mi Calm Calm - N/A   Clear
5:15 AM 57.2 °F - 57.2 °F 100% 30.09 in 5.0 mi Calm Calm - N/A   Clear
5:20 AM 57.2 °F - 57.2 °F 100% 30.09 in 5.0 mi Calm Calm - N/A   Scattered Clouds
5:35 AM 57.2 °F - 55.4 °F 94% 30.09 in 2.5 mi Calm Calm - N/A   Scattered Clouds
5:55 AM 57.2 °F - 57.2 °F 100% 30.10 in 1.2 mi Calm Calm - N/A   Scattered Clouds
6:15 AM 57.2 °F - 57.2 °F 100% 30.10 in 0.8 mi Calm Calm - N/A   Mostly Cloudy
6:35 AM 59.0 °F - 59.0 °F 100% 30.10 in 0.5 mi Calm Calm - N/A Fog Fog
7:15 AM 62.6 °F - 62.6 °F 100% 30.11 in 5.0 mi Calm Calm - N/A   Scattered Clouds
7:30 AM 62.6 °F - 62.6 °F 100% 30.11 in 5.0 mi Calm Calm - N/A   Scattered Clouds
7:55 AM 64.4 °F - 62.6 °F 94% 30.11 in 7.0 mi Calm Calm - N/A   Clear
8:35 AM 69.8 °F - 66.2 °F 88% 30.11 in 10.0 mi Calm Calm - N/A   Clear
8:55 AM 73.4 °F - 68.0 °F 83% 30.11 in 10.0 mi Calm Calm - N/A   Clear
9:15 AM 73.4 °F - 68.0 °F 83% 30.11 in 10.0 mi Calm Calm - N/A   Clear
9:35 AM 73.4 °F - 68.0 °F 83% 30.11 in 10.0 mi Calm Calm - N/A   Clear
9:55 AM 77.0 °F - 68.0 °F 74% 30.11 in 10.0 mi Calm Calm - N/A   Clear
10:15 AM 77.0 °F - 64.4 °F 65% 30.11 in 10.0 mi Calm Calm - N/A   Clear
10:35 AM 77.0 °F - 62.6 °F 61% 30.11 in 10.0 mi Calm Calm - N/A   Clear
10:55 AM 77.0 °F - 64.4 °F 65% 30.11 in 10.0 mi Calm Calm - N/A   Clear
11:15 AM 78.8 °F - 62.6 °F 57% 30.11 in 10.0 mi Calm Calm - N/A   Clear
11:35 AM 78.8 °F - 64.4 °F 61% 30.11 in 10.0 mi Calm Calm - N/A   Clear
11:55 AM 78.8 °F - 64.4 °F 61% 30.11 in 10.0 mi Calm Calm - N/A   Clear
12:15 PM 80.6 °F 82.3 °F 64.4 °F 58% 30.10 in 10.0 mi Calm Calm - N/A   Clear
12:35 PM 78.8 °F - 62.6 °F 57% 30.10 in 10.0 mi Calm Calm - N/A   Scattered Clouds
12:55 PM 80.6 °F 82.3 °F 64.4 °F 58% 30.09 in 10.0 mi Calm Calm - N/A   Scattered Clouds
1:15 PM 78.8 °F - 64.4 °F 61% 30.09 in 10.0 mi Calm Calm - N/A   Scattered Clouds
1:35 PM 80.6 °F 82.3 °F 64.4 °F 58% 30.08 in 10.0 mi Calm Calm - N/A   Scattered Clouds
1:55 PM 80.6 °F 81.8 °F 62.6 °F 54% 30.07 in 10.0 mi Calm Calm - N/A   Scattered Clouds
2:15 PM 80.6 °F 82.3 °F 64.4 °F 58% 30.07 in 10.0 mi Calm Calm - N/A   Scattered Clouds
2:35 PM 78.8 °F - 64.4 °F 61% 30.07 in 10.0 mi Calm Calm - N/A   Scattered Clouds
2:55 PM 80.6 °F 81.8 °F 62.6 °F 54% 30.06 in 10.0 mi Calm Calm - N/A   Clear
3:15 PM 80.6 °F 82.3 °F 64.4 °F 58% 30.05 in 10.0 mi Calm Calm - N/A   Scattered Clouds
3:35 PM 80.6 °F 81.8 °F 62.6 °F 54% 30.05 in 10.0 mi SSE 3.5 mph - N/A   Scattered Clouds
3:55 PM 80.6 °F 81.8 °F 62.6 °F 54% 30.05 in 10.0 mi Calm Calm - N/A   Clear
4:15 PM 80.6 °F 82.3 °F 64.4 °F 58% 30.05 in 10.0 mi Calm Calm - N/A   Scattered Clouds
4:35 PM 80.6 °F 82.3 °F 64.4 °F 58% 30.04 in 10.0 mi Calm Calm - N/A   Scattered Clouds
5:15 PM 80.6 °F 82.3 °F 64.4 °F 58% 30.05 in 10.0 mi Calm Calm - N/A Thunderstorm Clear
5:35 PM 78.8 °F - 64.4 °F 61% 30.05 in 10.0 mi Calm Calm - N/A   Clear
6:55 PM 69.8 °F - 60.8 °F 73% 30.07 in 10.0 mi NNW 9.2 mph 17.3 mph N/A Thunderstorm Thunderstorm
7:15 PM 69.8 °F - 62.6 °F 78% 30.07 in 10.0 mi North 6.9 mph - N/A   Mostly Cloudy
7:35 PM 69.8 °F - 62.6 °F 78% 30.08 in 10.0 mi NNW 5.8 mph - N/A Rain Light Rain
7:55 PM 68.0 °F - 59.0 °F 73% 30.08 in 10.0 mi North 9.2 mph - N/A Rain Light Rain
8:15 PM 68.0 °F - 59.0 °F 73% 30.08 in 10.0 mi Calm Calm - N/A Rain Light Rain
8:35 PM 66.2 °F - 60.8 °F 83% 30.08 in 10.0 mi Calm Calm - N/A   Overcast
8:55 PM 64.4 °F - 62.6 °F 94% 30.09 in 7.0 mi Calm Calm - N/A   Mostly Cloudy
9:15 PM 64.4 °F - 62.6 °F 94% 30.08 in 7.0 mi Calm Calm - N/A   Scattered Clouds
9:35 PM 64.4 °F - 60.8 °F 88% 30.08 in 7.0 mi Calm Calm - N/A   Scattered Clouds
9:55 PM 64.4 °F - 60.8 °F 88% 30.09 in 10.0 mi Calm Calm - N/A   Clear
10:15 PM 64.4 °F - 60.8 °F 88% 30.08 in 7.0 mi Calm Calm - N/A   Scattered Clouds
10:35 PM 64.4 °F - 60.8 °F 88% 30.09 in 10.0 mi Calm Calm - N/A   Scattered Clouds
10:55 PM 64.4 °F - 59.0 °F 83% 30.09 in 10.0 mi Calm Calm - N/A   Mostly Cloudy
11:35 PM 64.4 °F - 59.0 °F 83% 30.10 in 10.0 mi Calm Calm - N/A   Overcast
11:55 PM 64.4 °F - 60.8 °F 88% 30.10 in 10.0 mi Calm Calm - N/A   Overcast